Location: ??????????
(48.5701°N, 37.7703°E)
Time: 22:31:43
(UTC+00:00)

Cosmos 1975 - Pass Details

Date: 14 July 2020
Orbit: 542 x 561 km, 82.5° (Epoch: 10 August)

Event Time Altitude Azimuth Distance (km) Brightness Sun altitude
Exits shadow 00:34:26 - 172° (S) 2,604 5.9 -9.2°
Reaches altitude 10° 00:36:25 10° 166° (SSE) 1,810 5.1 -8.9°
Maximum altitude 00:40:13 45° 94° (E) 754 3.9 -8.5°
Drops below altitude 10° 00:44:02 10° 21° (NNE) 1,820 6.7 -8.1°
Sets 00:46:15 0° 15° (NNE) 2,717 7.6 -7.8°
